Location: Bodest
(46.3000°N, 22.5667°E)
Time: 09:33:45
(UTC+00:00)

H-2A R/B - Pass Details

Date: 16 October 2021
Orbit: 732 x 837 km, 98.2° (Epoch: 07 December)

Event Time Altitude Azimuth Distance (km) Brightness Sun altitude
Rises 16:43:22 0° 173° (S) 3,302 5.2 -11.4°
Reaches altitude 10° 16:45:41 10° 176° (S) 2,390 4.5 -11.8°
Maximum altitude 16:50:58 67° 259° (WSW) 896 2.6 -12.8°
Drops below altitude 10° 16:56:24 10° 341° (NNW) 2,454 4.9 -13.7°
Sets 16:58:49 0° 345° (NNW) 3,397 5.6 -14.1°
